Location: Beddau
(51.5575°N, 3.3561°W)
Time: 17:49:59
(UTC+00:00)

SL-16 R/B - Pass Details

Date: 03 March 2021
Orbit: 842 x 846 km, 71.0° (Epoch: 13 April)

Event Time Altitude Azimuth Distance (km) Brightness Sun altitude
Rises 19:30:44 0° 219° (SW) 3,392 5.8 -15.2°
Reaches altitude 10° 19:33:11 10° 222° (SW) 2,462 5.1 -15.6°
Maximum altitude 19:38:48 65° 304° (NW) 930 2.6 -16.5°
Drops below altitude 10° 19:44:28 10° 27° (NNE) 2,479 4.5 -17.3°
Sets 19:46:58 0° 30° (NNE) 3,418 5.2 -17.7°
